TimeEDT,TemperatureF,Dew PointF,Humidity,Sea Level PressureIn,VisibilityMPH,Wind Direction,Wind SpeedMPH,Gust SpeedMPH,PrecipitationIn,Events,Conditions,WindDirDegrees,DateUTC
12:53 AM,48.0,33.1,56,29.86,10.0,SSW,8.1,-,N/A,,Overcast,200,2013-03-31 04:53:00
1:53 AM,48.0,35.1,61,29.84,10.0,SSW,10.4,-,0.00,Rain,Light Rain,210,2013-03-31 05:53:00
2:53 AM,46.0,36.0,68,29.80,10.0,South,6.9,-,0.00,,Overcast,180,2013-03-31 06:53:00
3:53 AM,46.0,36.0,68,29.77,10.0,South,6.9,-,N/A,,Overcast,190,2013-03-31 07:53:00
4:53 AM,45.0,37.0,74,29.75,10.0,SSW,6.9,-,0.00,Rain,Light Rain,210,2013-03-31 08:53:00
5:53 AM,44.1,39.0,82,29.73,7.0,SSW,5.8,-,0.03,Rain,Light Rain,200,2013-03-31 09:53:00
6:13 AM,44.6,41.0,87,29.72,5.0,SSW,5.8,-,0.00,Rain,Light Rain,200,2013-03-31 10:13:00
6:46 AM,44.6,42.8,93,29.71,2.5,SW,9.2,-,0.00,,Overcast,230,2013-03-31 10:46:00
6:53 AM,45.0,43.0,93,29.72,2.0,SW,10.4,-,0.00,,Overcast,230,2013-03-31 10:53:00
7:41 AM,44.6,42.8,93,29.71,1.8,West,12.7,-,0.01,,Overcast,260,2013-03-31 11:41:00
7:53 AM,44.1,42.1,93,29.73,1.8,West,11.5,-,0.01,,Overcast,270,2013-03-31 11:53:00
8:31 AM,42.8,41.0,93,29.72,2.5,West,8.1,-,N/A,,Overcast,280,2013-03-31 12:31:00
8:53 AM,43.0,41.0,93,29.73,4.0,West,9.2,-,0.01,,Overcast,270,2013-03-31 12:53:00
9:53 AM,43.0,39.0,86,29.72,6.0,West,13.8,-,N/A,,Overcast,280,2013-03-31 13:53:00
10:10 AM,42.8,39.2,87,29.71,7.0,West,15.0,-,N/A,,Overcast,260,2013-03-31 14:10:00
10:38 AM,42.8,37.4,81,29.71,8.0,West,12.7,-,N/A,,Overcast,270,2013-03-31 14:38:00
10:53 AM,43.0,37.9,82,29.73,8.0,West,13.8,-,N/A,,Overcast,270,2013-03-31 14:53:00
11:53 AM,45.0,37.9,76,29.72,7.0,WSW,15.0,-,N/A,,Overcast,240,2013-03-31 15:53:00
12:53 PM,44.1,37.9,79,29.73,8.0,West,18.4,-,N/A,,Overcast,260,2013-03-31 16:53:00
1:53 PM,44.1,37.9,79,29.72,7.0,WSW,19.6,-,N/A,,Overcast,240,2013-03-31 17:53:00
2:53 PM,42.1,37.0,82,29.71,5.0,West,16.1,-,N/A,,Haze,260,2013-03-31 18:53:00
3:53 PM,45.0,37.9,76,29.70,7.0,West,15.0,-,N/A,,Overcast,260,2013-03-31 19:53:00
4:07 PM,46.4,37.4,71,29.69,8.0,West,17.3,21.9,N/A,,Overcast,260,2013-03-31 20:07:00
4:53 PM,48.0,39.0,71,29.68,9.0,West,10.4,-,N/A,,Overcast,260,2013-03-31 20:53:00
5:53 PM,48.0,37.9,68,29.68,10.0,West,17.3,-,N/A,,Overcast,270,2013-03-31 21:53:00
6:06 PM,46.4,37.4,71,29.67,10.0,WNW,12.7,-,N/A,,Overcast,290,2013-03-31 22:06:00
6:53 PM,46.0,30.0,54,29.68,10.0,WNW,15.0,24.2,N/A,,Overcast,300,2013-03-31 22:53:00
7:53 PM,45.0,33.1,63,29.69,10.0,WNW,10.4,-,N/A,,Overcast,290,2013-03-31 23:53:00
8:41 PM,42.8,33.8,70,29.71,10.0,WNW,21.9,31.1,N/A,,Overcast,290,2013-04-01 00:41:00
8:53 PM,41.0,30.0,65,29.73,10.0,WNW,21.9,28.8,N/A,,Overcast,290,2013-04-01 00:53:00
9:06 PM,41.0,28.4,61,29.72,10.0,WNW,19.6,27.6,N/A,,Overcast,290,2013-04-01 01:06:00
9:53 PM,39.9,28.0,63,29.75,10.0,WNW,20.7,26.5,N/A,,Overcast,300,2013-04-01 01:53:00
10:53 PM,39.0,30.0,70,29.77,10.0,WNW,13.8,20.7,N/A,,Overcast,300,2013-04-01 02:53:00
11:14 PM,37.4,28.4,70,29.76,10.0,WNW,16.1,27.6,N/A,,Mostly Cloudy,300,2013-04-01 03:14:00
11:53 PM,37.0,28.0,70,29.78,10.0,WNW,15.0,21.9,0.00,Snow,Light Snow,300,2013-04-01 03:53:00